| time (UTC) | temp F | wind direction | speed knots | gust knots | rain 1hr in | rain 24hr in | rain mn in | humidity % | barometer mb |
| 20260507054701 | 61 | 16 | 0.0 | 0.0 | 0.00 | 0.63 | 0.01 | 7 | 989.6 |
| 20260507054649 | 61 | 16 | 0.0 | 0.0 | 0.00 | 0.63 | 0.01 | 7 | 989.6 |
| 20260507053148 | 53 | 17 | 0.0 | 0.0 | 0.00 | 0.63 | 0.01 | 8 | 989.3 |
| 20260507051701 | 52 | 53 | 0.0 | 0.9 | 0.00 | 0.63 | 0.01 | 9 | 989.2 |
| 20260507051648 | 52 | 61 | 0.0 | 0.0 | 0.00 | 0.63 | 0.01 | 9 | 989.2 |
| 20260507050148 | 53 | 22 | 0.0 | 0.0 | 0.00 | 0.63 | 0.01 | 9 | 989.4 |
| 20260507044701 | 49 | 5 | 0.9 | 0.9 | 0.00 | 0.63 | 0.01 | 9 | 989.3 |
| 20260507044648 | 49 | 348 | 0.9 | 0.9 | 0.00 | 0.63 | 0.01 | 9 | 989.3 |
| 20260507043149 | 47 | 18 | 0.0 | 0.0 | 0.00 | 0.63 | 0.01 | 9 | 989.2 |
| 20260507041648 | 48 | 24 | 0.0 | 0.0 | 0.00 | 0.63 | 0.01 | 9 | 988.6 |
| 20260507040148 | 48 | 15 | 0.0 | 0.0 | 0.00 | 0.63 | 0.01 | 9 | 988.7 |
| 20260507034648 | 48 | 260 | 2.6 | 3.5 | 0.01 | 0.64 | 0.01 | 9 | 988.6 |
| 20260507033149 | 48 | 328 | 0.9 | 1.7 | 0.01 | 0.64 | 0.01 | 9 | 988.6 |
| 20260507031649 | 49 | 233 | 1.7 | 2.6 | 0.01 | 0.64 | 0.01 | 9 | 988.5 |
| 20260507030203 | 50 | 310 | 0.9 | 1.7 | 0.01 | 0.64 | 0.01 | 9 | 988.9 |
| 20260507030148 | 50 | 314 | 0.9 | 1.7 | 0.01 | 0.64 | 0.01 | 9 | 988.9 |
| 20260507024701 | 50 | 11 | 0.0 | 0.9 | 0.00 | 0.63 | 0.00 | 9 | 988.7 |
| 20260507024648 | 50 | 4 | 0.0 | 1.7 | 0.00 | 0.63 | 0.00 | 9 | 988.7 |
| 20260507023148 | 50 | 6 | 0.0 | 0.0 | 0.00 | 0.63 | 0.00 | 9 | 988.7 |
| 20260507021702 | 50 | 14 | 0.0 | 0.0 | 0.00 | 0.63 | 0.00 | 9 | 988.7 |
| 20260507021649 | 50 | 14 | 0.0 | 0.9 | 0.00 | 0.63 | 0.00 | 9 | 988.7 |
| 20260507020202 | 50 | 358 | 0.0 | 0.9 | 0.00 | 0.63 | 0.00 | 9 | 988.6 |
| 20260507020149 | 50 | 316 | 0.0 | 0.9 | 0.00 | 0.63 | 0.00 | 9 | 988.6 |
| 20260507014702 | 51 | 28 | 0.0 | 0.9 | 0.00 | 0.63 | 0.00 | 9 | 988.5 |
| 20260507014648 | 51 | 33 | 0.0 | 0.9 | 0.00 | 0.63 | 0.00 | 9 | 988.5 |
| 20260507013148 | 51 | 26 | 0.0 | 0.0 | 0.00 | 0.63 | 0.00 | 9 | 988.3 |
| 20260507011701 | 52 | 8 | 0.9 | 0.9 | 0.00 | 0.63 | 0.00 | 9 | 988.3 |
| 20260507011648 | 52 | 355 | 0.9 | 0.9 | 0.00 | 0.63 | 0.00 | 9 | 988.3 |
| 20260507010202 | 52 | 203 | 0.9 | 2.6 | 0.00 | 0.63 | 0.00 | 9 | 988.5 |
| 20260507010149 | 52 | 77 | 0.9 | 2.6 | 0.00 | 0.63 | 0.00 | 9 | 988.5 |
| 20260507004702 | 53 | 187 | 1.7 | 1.7 | 0.00 | 0.63 | 0.00 | 9 | 988.7 |
| 20260507004649 | 53 | 300 | 0.9 | 1.7 | 0.00 | 0.63 | 0.00 | 9 | 988.7 |
| 20260507003148 | 52 | 29 | 0.0 | 0.0 | 0.00 | 0.63 | 0.00 | 9 | 988.8 |
| 20260507001648 | 52 | 330 | 0.9 | 0.9 | 0.00 | 0.63 | 0.00 | 9 | 988.7 |
| 20260507000148 | 52 | 252 | 0.9 | 2.6 | 0.00 | 0.63 | 0.00 | 9 | 989.0 |
| 20260506234649 | 52 | 116 | 0.9 | 2.6 | 0.00 | 0.63 | 0.00 | 9 | 989.0 |
| 20260506233148 | 53 | 14 | 0.0 | 0.0 | 0.00 | 0.63 | 0.00 | 9 | 989.2 |
| 20260506231648 | 53 | 227 | 1.7 | 2.6 | 0.00 | 0.63 | 0.00 | 9 | 989.3 |
| 20260506230148 | 52 | 14 | 0.0 | 0.0 | 0.00 | 0.63 | 0.00 | 9 | 989.3 |
| 20260506224701 | 52 | 355 | 0.9 | 1.7 | 0.00 | 0.63 | 0.00 | 9 | 989.2 |
| 20260506224648 | 52 | 300 | 1.7 | 1.7 | 0.00 | 0.63 | 0.00 | 9 | 989.2 |
| 20260506223202 | 53 | 347 | 0.0 | 0.9 | 0.00 | 0.63 | 0.00 | 9 | 988.9 |
| 20260506223149 | 53 | 326 | 0.0 | 0.9 | 0.00 | 0.63 | 0.00 | 9 | 988.9 |
| 20260506221701 | 53 | 341 | 0.9 | 0.9 | 0.00 | 0.63 | 0.00 | 9 | 989.0 |
| 20260506221648 | 53 | 343 | 0.9 | 0.9 | 0.00 | 0.63 | 0.00 | 9 | 989.0 |
| 20260506220201 | 53 | 348 | 0.9 | 1.7 | 0.00 | 0.63 | 0.00 | 9 | 989.3 |
| 20260506220148 | 53 | 333 | 0.9 | 1.7 | 0.00 | 0.63 | 0.00 | 9 | 989.3 |
| 20260506214649 | 53 | 32 | 0.0 | 0.0 | 0.00 | 0.65 | 0.65 | 9 | 989.0 |
| 20260506213201 | 52 | 327 | 0.0 | 4.3 | 0.00 | 0.65 | 0.65 | 9 | 989.2 |
| 20260506213148 | 52 | 10 | 0.0 | 4.3 | 0.00 | 0.65 | 0.65 | 9 | 989.2 |
| 20260506211702 | 53 | 292 | 0.9 | 4.3 | 0.00 | 0.65 | 0.65 | 9 | 989.0 |
| 20260506211649 | 53 | 264 | 3.5 | 4.3 | 0.00 | 0.65 | 0.65 | 9 | 989.0 |
| 20260506210202 | 54 | 211 | 2.6 | 3.5 | 0.02 | 0.67 | 0.65 | 9 | 988.9 |
| 20260506210148 | 54 | 227 | 1.7 | 2.6 | 0.02 | 0.67 | 0.65 | 9 | 988.9 |
| 20260506204648 | 54 | 32 | 0.0 | 0.9 | 0.02 | 0.65 | 0.65 | 9 | 988.6 |
| 20260506203148 | 54 | 6 | 0.0 | 0.9 | 0.02 | 0.65 | 0.65 | 9 | 988.7 |
| 20260506201648 | 55 | 32 | 0.0 | 0.0 | 0.04 | 0.67 | 0.64 | 9 | 988.6 |
| 20260506200149 | 55 | 317 | 0.9 | 0.9 | 0.11 | 0.74 | 0.63 | 9 | 988.4 |
| 20260506194648 | 55 | 48 | 0.0 | 0.9 | 0.13 | 0.63 | 0.63 | 9 | 988.2 |
| 20260506193148 | 56 | 4 | 0.0 | 1.7 | 0.15 | 0.64 | 0.61 | 9 | 988.2 |
| 20260506191648 | 57 | 290 | 0.9 | 1.7 | 0.22 | 0.72 | 0.57 | 9 | 987.9 |
| 20260506190202 | 57 | 302 | 0.9 | 1.7 | 0.18 | 0.68 | 0.50 | 9 | 987.6 |
| 20260506190149 | 57 | 315 | 0.9 | 1.7 | 0.18 | 0.68 | 0.50 | 9 | 987.6 |
| 20260506184649 | 57 | 18 | 0.0 | 0.9 | 0.35 | 0.62 | 0.48 | 9 | 987.4 |
| 20260506183202 | 57 | 274 | 2.6 | 4.3 | 0.29 | 0.57 | 0.42 | 9 | 987.2 |
| 20260506183148 | 57 | 251 | 3.5 | 4.3 | 0.29 | 0.57 | 0.42 | 9 | 987.2 |
| 20260506181701 | 57 | 237 | 2.6 | 3.5 | 0.20 | 0.48 | 0.33 | 9 | 987.6 |
| 20260506181648 | 57 | 311 | 2.6 | 3.5 | 0.20 | 0.48 | 0.33 | 9 | 987.6 |
| 20260506180201 | 57 | 243 | 1.7 | 2.6 | 0.16 | 0.44 | 0.29 | 9 | 987.2 |
| 20260506180148 | 57 | 253 | 1.7 | 2.6 | 0.16 | 0.44 | 0.29 | 9 | 987.2 |
| 20260506174702 | 58 | 126 | 1.7 | 2.6 | 0.00 | 0.13 | 0.13 | 8 | 986.7 |
| 20260506174649 | 57 | 188 | 1.7 | 2.6 | 0.00 | 0.13 | 0.13 | 8 | 986.7 |
| 20260506173201 | 58 | 286 | 1.7 | 2.6 | 0.00 | 0.13 | 0.13 | 8 | 986.7 |
| 20260506173149 | 58 | 240 | 0.9 | 2.6 | 0.00 | 0.13 | 0.13 | 8 | 986.7 |
| 20260506171701 | 58 | 241 | 0.9 | 2.6 | 0.00 | 0.12 | 0.12 | 8 | 986.6 |
| 20260506171648 | 58 | 341 | 1.7 | 2.6 | 0.00 | 0.12 | 0.12 | 8 | 986.6 |
| 20260506170201 | 59 | 2 | 1.7 | 7.0 | 0.00 | 0.12 | 0.12 | 8 | 986.3 |
| 20260506170148 | 59 | 302 | 2.6 | 7.0 | 0.00 | 0.12 | 0.12 | 8 | 986.3 |
| 20260506164701 | 60 | 340 | 2.6 | 3.5 | 0.01 | 0.13 | 0.12 | 8 | 986.3 |
| 20260506164648 | 60 | 291 | 0.0 | 3.5 | 0.01 | 0.13 | 0.12 | 8 | 986.3 |
| 20260506163149 | 61 | 349 | 0.9 | 7.0 | 0.02 | 0.14 | 0.12 | 8 | 986.0 |
| 20260506161648 | 62 | 19 | 0.9 | 3.5 | 0.02 | 0.14 | 0.12 | 8 | 986.2 |
| 20260506160148 | 62 | 298 | 0.0 | 0.9 | 0.02 | 0.14 | 0.12 | 8 | 986.0 |
| 20260506154648 | 66 | 236 | 7.0 | 14.8 | 0.00 | 0.10 | 0.09 | 7 | 985.8 |
| 20260506153149 | 67 | 293 | 2.6 | 4.3 | 0.00 | 0.10 | 0.09 | 7 | 985.6 |
| 20260506151649 | 66 | 258 | 5.2 | 9.6 | 0.00 | 0.10 | 0.09 | 7 | 985.8 |
| 20260506150201 | 66 | 238 | 4.3 | 4.3 | 0.00 | 0.10 | 0.09 | 7 | 985.9 |
| 20260506150148 | 66 | 262 | 4.3 | 8.7 | 0.00 | 0.10 | 0.09 | 7 | 985.9 |
| 20260506144701 | 67 | 251 | 1.7 | 3.5 | 0.00 | 0.18 | 0.09 | 7 | 985.9 |
| 20260506144648 | 67 | 312 | 1.7 | 4.3 | 0.00 | 0.18 | 0.09 | 7 | 985.9 |
| 20260506143201 | 63 | 356 | 0.0 | 2.6 | 0.05 | 0.23 | 0.09 | 8 | 985.9 |
| 20260506143148 | 63 | 351 | 0.0 | 2.6 | 0.05 | 0.23 | 0.09 | 8 | 985.9 |
| 20260506141702 | 62 | 243 | 3.5 | 4.3 | 0.05 | 0.23 | 0.09 | 8 | 985.9 |
| 20260506141649 | 62 | 5 | 0.9 | 2.6 | 0.05 | 0.23 | 0.09 | 8 | 985.9 |
| 20260506140202 | 62 | 265 | 4.3 | 4.3 | 0.05 | 0.23 | 0.09 | 8 | 985.9 |
| 20260506140149 | 62 | 213 | 3.5 | 4.3 | 0.05 | 0.23 | 0.09 | 8 | 985.9 |
| 20260506134701 | 62 | 260 | 2.6 | 9.6 | 0.05 | 0.25 | 0.09 | 8 | 986.0 |
| 20260506134648 | 62 | 242 | 4.3 | 9.6 | 0.05 | 0.25 | 0.09 | 8 | 986.0 |
| 20260506133201 | 65 | 4 | 7.0 | 12.2 | 0.00 | 0.20 | 0.03 | 7 | 986.1 |
| 20260506133148 | 65 | 233 | 7.8 | 12.2 | 0.00 | 0.20 | 0.03 | 7 | 986.1 |
| 20260506131648 | 67 | 193 | 5.2 | 7.8 | 0.00 | 0.20 | 0.03 | 7 | 986.0 |
| 20260506130201 | 70 | 258 | 10.4 | 12.2 | 0.00 | 0.20 | 0.03 | 6 | 986.2 |
| 20260506130148 | 70 | 208 | 6.1 | 12.2 | 0.00 | 0.20 | 0.03 | 6 | 986.2 |
| 20260506124649 | 69 | 332 | 4.3 | 15.6 | 0.00 | 0.26 | 0.03 | 7 | 986.3 |
| 20260506123148 | 68 | 215 | 7.0 | 10.4 | 0.00 | 0.26 | 0.03 | 7 | 986.5 |
| 20260506121648 | 64 | 252 | 5.2 | 8.7 | 0.00 | 0.26 | 0.03 | 8 | 986.5 |
| 20260506120148 | 66 | 263 | 6.1 | 13.0 | 0.00 | 0.26 | 0.03 | 8 | 986.5 |
| 20260506114649 | 68 | 258 | 10.4 | 16.5 | 0.00 | 0.48 | 0.03 | 6 | 986.3 |
| 20260506113148 | 68 | 206 | 4.3 | 15.6 | 0.00 | 0.48 | 0.03 | 6 | 986.3 |
| 20260506111648 | 67 | 19 | 3.5 | 12.2 | 0.00 | 0.48 | 0.03 | 7 | 986.4 |
| 20260506110201 | 66 | 243 | 10.4 | 16.5 | 0.00 | 0.48 | 0.03 | 7 | 987.0 |
| 20260506110148 | 66 | 268 | 13.0 | 16.5 | 0.00 | 0.48 | 0.03 | 7 | 987.0 |
| 20260506104701 | 65 | 242 | 7.8 | 9.6 | 0.00 | 0.57 | 0.03 | 7 | 987.2 |
| 20260506104648 | 66 | 264 | 7.0 | 9.6 | 0.00 | 0.57 | 0.03 | 7 | 987.2 |
| 20260506103202 | 67 | 234 | 10.4 | 15.6 | 0.00 | 0.57 | 0.03 | 7 | 987.0 |
| 20260506103149 | 67 | 235 | 7.0 | 14.8 | 0.00 | 0.57 | 0.03 | 7 | 987.0 |
| 20260506101701 | 68 | 195 | 2.6 | 8.7 | 0.00 | 0.57 | 0.03 | 6 | 987.2 |
| 20260506101649 | 68 | 31 | 1.7 | 8.7 | 0.00 | 0.57 | 0.03 | 7 | 987.2 |
| 20260506100202 | 67 | 264 | 5.2 | 12.2 | 0.00 | 0.57 | 0.03 | 7 | 986.8 |
| 20260506100148 | 67 | 268 | 0.9 | 12.2 | 0.00 | 0.57 | 0.03 | 7 | 986.8 |
| 20260506094701 | 66 | 204 | 10.4 | 15.6 | 0.00 | 0.72 | 0.03 | 7 | 986.8 |
| 20260506094648 | 67 | 199 | 8.7 | 15.6 | 0.00 | 0.72 | 0.03 | 7 | 986.8 |
| 20260506093201 | 65 | 260 | 2.6 | 11.3 | 0.00 | 0.72 | 0.03 | 7 | 987.0 |
| 20260506093148 | 64 | 281 | 2.6 | 11.3 | 0.00 | 0.72 | 0.03 | 7 | 987.0 |
| 20260506091701 | 63 | 285 | 7.8 | 9.6 | 0.00 | 0.72 | 0.03 | 7 | 987.2 |
| 20260506091649 | 63 | 215 | 6.1 | 8.7 | 0.00 | 0.72 | 0.03 | 7 | 987.2 |
| 20260506090148 | 64 | 249 | 8.7 | 11.3 | 0.00 | 0.72 | 0.03 | 7 | 987.0 |
| 20260506084701 | 64 | 210 | 5.2 | 14.8 | 0.00 | 0.72 | 0.03 | 7 | 987.0 |
| 20260506084648 | 64 | 278 | 7.8 | 14.8 | 0.00 | 0.72 | 0.03 | 7 | 987.0 |
| 20260506083148 | 64 | 266 | 5.2 | 8.7 | 0.00 | 0.72 | 0.03 | 8 | 987.0 |
| 20260506081648 | 61 | 15 | 0.9 | 2.6 | 0.00 | 0.72 | 0.03 | 8 | 987.0 |
| 20260506080149 | 60 | 215 | 7.0 | 10.4 | 0.00 | 0.72 | 0.03 | 8 | 986.6 |
| 20260506073148 | 60 | 211 | 3.5 | 3.5 | 0.00 | 0.72 | 0.03 | 8 | 986.5 |
| 20260506071648 | 60 | 15 | 1.7 | 2.6 | 0.00 | 0.72 | 0.03 | 8 | 986.4 |
| 20260506070148 | 61 | 235 | 5.2 | 7.0 | 0.00 | 0.72 | 0.03 | 8 | 986.4 |
| 20260506061701 | 58 | 158 | 0.9 | 3.5 | 0.00 | 0.73 | 0.03 | 8 | 986.1 |
| 20260506061648 | 58 | 346 | 0.9 | 3.5 | 0.00 | 0.73 | 0.03 | 8 | 986.1 |
| 20260506060201 | 58 | 5 | 0.0 | 2.6 | 0.00 | 0.72 | 0.03 | 8 | 986.3 |
| 20260506060148 | 58 | 13 | 0.0 | 2.6 | 0.00 | 0.72 | 0.03 | 8 | 986.3 |